This demonstration page uses our WeatherBlox Daily Observations layout. Learn more.

Left ArrowRight Arrow

39.08367, -84.50855

Hourly Observations for December 28, 2015

Temp ( °F °C ) Dew Point ( °F °C ) Humidity (%) Winds ( mph kmh ) Pressure ( in mb ) Visibility ( mi km ) Precip ( " mm )
12:53 am 00:53 Cloudy 41 5 37 2.8 86 86 NE 13 20 30.22 1023 10 16 0.00 0.00
1:53 am 01:53 Cloudy 41 5 37 2.8 86 86 NE 12 19 30.22 1023 10 16 0.00 0.00
2:53 am 02:53 Cloudy 41 5 37 2.8 86 86 ENE 13 20 30.21 1023 10 16 0.00 0.00
3:44 am 03:44 Cloudy 41 5 36 2 81 81 ENE 17 28 30.18 1022 10 16 0.00 0.00
3:53 am 03:53 Cloudy 41 5 35 1.7 79 79 ENE 15 24 30.19 1022 10 16 0.00 0.00
4:26 am 04:26 Cloudy 41 5 36 2 81 81 ENE 17 28 30.18 1022 10 16 0.00 0.00
4:36 am 04:36 Cloudy 41 5 36 2 81 81 ENE 18 30 30.18 1022 10 16 0.00 0.00
4:51 am 04:51 Cloudy 39 4 36 2 87 87 ENE 16 26 30.15 1021 10 16 0.00 0.03
4:53 am 04:53 Cloudy 40 4.4 36 2.2 86 86 ENE 14 22 30.16 1022 10 16 0.00 0.03
5:53 am 05:53 Cloudy with Light Rain 40 4.4 36 2.2 86 86 ENE 15 24 30.14 1021 10 16 0.00 0.03
6:53 am 06:53 Cloudy 40 4.4 35 1.7 83 83 ENE 16 26 30.14 1021 10 16 0.00 0.03
7:53 am 07:53 Cloudy 39 3.9 35 1.7 86 86 ENE 10 17 30.13 1020 10 16 0.00 0.03
8:53 am 08:53 Cloudy with Light Rain 39 3.9 35 1.7 86 86 ENE 10 17 30.11 1020 10 16 0.00 0.03
9:53 am 09:53 Cloudy 39 3.9 35 1.7 86 86 ENE 15 24 30.09 1019 10 16 0.01 0.25
10:24 am 10:24 Cloudy with Heavy Rain 37 3 36 2 93 93 ENE 14 22 30.09 1019 2 3 0.00 0.00
10:53 am 10:53 Cloudy with Heavy Rain 38 3.3 37 2.8 97 97 ENE 10 17 30.09 1019 2 3 0.22 5.59
11:25 am 11:25 Cloudy with Light Rain 38 3.3 37 2.8 97 97 ENE 13 20 30.03 1017 5 8 0.05 1.27
11:53 am 11:53 Cloudy 39 3.9 37 2.8 93 93 ENE 12 19 30.00 1016 10 16 0.05 1.27
12:53 pm 12:53 Cloudy 40 4.4 37 2.8 89 89 ENE 10 17 29.92 1013 10 16 0.00 0.03
1:53 pm 13:53 Cloudy with Light Rain 40 4.4 39 3.9 97 97 ENE 8 13 29.88 1012 5 8 0.14 3.56
2:53 pm 14:53 Cloudy 41 5 39 3.9 93 93 ENE 10 17 29.80 1009 10 16 0.00 0.03
3:53 pm 15:53 Cloudy with Light Rain 42 5.6 40 4.4 92 92 NE 6 9 29.78 1008 7 11 0.01 0.25
4:53 pm 16:53 Cloudy with Rain 42 5.6 42 5.6 100 100 ENE 8 13 29.72 1006 4 6 0.14 3.56
5:53 pm 17:53 Cloudy with Light Rain 45 7.2 43 6.1 93 93 ENE 6 9 29.67 1005 7 11 0.13 3.30
6:53 pm 18:53 Cloudy with Light Rain 49 9.4 47 8.3 93 93 SE 9 15 29.63 1004 10 16 0.00 0.03
7:53 pm 19:53 Mostly Cloudy 52 11.1 50 10 93 93 SE 10 17 29.60 1002 10 16 0.00 0.03
8:53 pm 20:53 Partly Cloudy 53 11.7 50 10 89 89 S 14 22 29.58 1002 10 16 0.00 0.00
9:53 pm 21:53 Cloudy 54 12.2 53 11.7 97 97 W 15 24 29.61 1003 10 16 0.00 0.00
10:20 pm 22:20 Cloudy with Heavy Rain 55 13 55 13 100 100 SW 8 13 29.62 1003 2 3 0.00 0.00
10:24 pm 22:24 Cloudy with Rain 55 13 55 13 100 100 SW 5 7 29.62 1003 4 6 0.00 0.00
10:40 pm 22:40 Cloudy with Light Rain 54 12 54 12 100 100 S 5 7 29.62 1003 4 6 0.00 0.00
10:49 pm 22:49 Cloudy with Rain 54 12 54 12 100 100 SW 5 7 29.62 1003 2 3 0.14 3.56
10:53 pm 22:53 Cloudy with Rain 54 12.2 54 12.2 100 100 SW 3 6 29.64 1004 2 3 0.15 3.81
11:07 pm 23:07 Cloudy with Light Rain 54 12.2 54 12.2 100 100 SSW 5 7 29.65 1004 4 6 0.00 0.03
11:24 pm 23:24 Cloudy 55 13 55 13 100 100 WSW 8 13 29.68 1005 10 16 0.00 0.00
11:53 pm 23:53 Cloudy 56 13.3 51 10.6 84 84 WSW 15 24 29.68 1005 10 16 0.01 0.25

Powered by AerisWeather